TimeMDT,TemperatureF,Dew PointF,Humidity,Sea Level PressureIn,VisibilityMPH,Wind Direction,Wind SpeedMPH,Gust SpeedMPH,PrecipitationIn,Events,Conditions,WindDirDegrees,DateUTC
12:15 AM,66.2,23.0,19,29.98,10.0,Calm,Calm,-,N/A,,Clear,0,2013-03-31 06:15:00
12:35 AM,66.2,23.0,19,29.99,10.0,SW,6.9,-,N/A,,Clear,230,2013-03-31 06:35:00
12:55 AM,68.0,23.0,18,29.99,10.0,WSW,11.5,-,N/A,,Clear,240,2013-03-31 06:55:00
1:15 AM,68.0,23.0,18,29.98,10.0,Calm,Calm,-,N/A,,Clear,0,2013-03-31 07:15:00
1:35 AM,68.0,23.0,18,29.99,10.0,WSW,6.9,-,N/A,,Clear,250,2013-03-31 07:35:00
1:55 AM,68.0,23.0,18,29.98,10.0,WSW,5.8,-,N/A,,Clear,240,2013-03-31 07:55:00
2:15 AM,66.2,23.0,19,29.98,10.0,West,8.1,-,N/A,,Clear,260,2013-03-31 08:15:00
2:35 AM,66.2,23.0,19,29.97,10.0,West,3.5,-,N/A,,Clear,280,2013-03-31 08:35:00
2:55 AM,64.4,24.8,22,29.97,10.0,Calm,Calm,-,N/A,,Clear,0,2013-03-31 08:55:00
3:15 AM,64.4,23.0,21,29.96,10.0,Calm,Calm,-,N/A,,Clear,0,2013-03-31 09:15:00
3:35 AM,64.4,23.0,21,29.96,10.0,Calm,Calm,-,N/A,,Clear,0,2013-03-31 09:35:00
3:55 AM,62.6,23.0,22,29.97,10.0,Calm,Calm,-,N/A,,Partly Cloudy,0,2013-03-31 09:55:00
4:15 AM,64.4,23.0,21,29.96,10.0,West,9.2,-,N/A,,Clear,270,2013-03-31 10:15:00
4:35 AM,64.4,23.0,21,29.96,10.0,WNW,17.3,-,N/A,,Clear,290,2013-03-31 10:35:00
4:55 AM,66.2,24.8,21,29.96,10.0,WNW,11.5,-,N/A,,Clear,300,2013-03-31 10:55:00
5:50 AM,64.4,24.8,22,29.99,10.0,North,13.8,-,N/A,,Scattered Clouds,350,2013-03-31 11:50:00
6:31 AM,57.2,32.0,38,30.02,4.0,North,25.3,31.1,N/A,,Widespread Dust,350,2013-03-31 12:31:00
6:50 AM,55.4,35.6,47,30.04,3.0,NNW,26.5,35.7,N/A,,Widespread Dust,340,2013-03-31 12:50:00
7:50 AM,53.6,42.8,67,30.09,6.0,North,24.2,33.4,N/A,,Widespread Dust,10,2013-03-31 13:50:00
8:50 AM,55.4,41.0,58,30.11,10.0,NNE,25.3,31.1,N/A,,Clear,20,2013-03-31 14:50:00
9:50 AM,59.0,41.0,51,30.12,10.0,NE,24.2,29.9,N/A,,Clear,40,2013-03-31 15:50:00
11:50 AM,64.4,41.0,42,30.15,10.0,NNE,13.8,23.0,N/A,,Clear,30,2013-03-31 17:50:00
12:50 PM,68.0,41.0,37,30.13,10.0,NE,13.8,20.7,N/A,,Clear,40,2013-03-31 18:50:00
1:50 PM,69.8,39.2,33,30.09,10.0,NNE,9.2,-,N/A,,Clear,20,2013-03-31 19:50:00
2:50 PM,71.6,39.2,31,30.06,10.0,Calm,Calm,-,N/A,,Clear,0,2013-03-31 20:50:00
4:50 PM,71.6,39.2,31,30.02,10.0,Calm,Calm,-,N/A,,Clear,0,2013-03-31 22:50:00
5:50 PM,73.4,39.2,29,30.01,10.0,Calm,Calm,-,N/A,,Clear,0,2013-03-31 23:50:00
6:15 PM,71.6,37.4,29,30.02,10.0,Calm,Calm,-,N/A,,Clear,0,2013-04-01 00:15:00
6:35 PM,69.8,37.4,31,30.02,10.0,Calm,Calm,-,N/A,,Clear,0,2013-04-01 00:35:00
6:55 PM,68.0,37.4,33,30.02,10.0,Calm,Calm,-,N/A,,Clear,0,2013-04-01 00:55:00
7:15 PM,66.2,37.4,35,30.03,10.0,Calm,Calm,-,N/A,,Clear,0,2013-04-01 01:15:00
7:35 PM,64.4,37.4,37,30.03,10.0,Calm,Calm,-,N/A,,Clear,0,2013-04-01 01:35:00
7:55 PM,62.6,37.4,39,30.03,10.0,Calm,Calm,-,N/A,,Clear,0,2013-04-01 01:55:00
8:15 PM,62.6,37.4,39,30.04,10.0,Calm,Calm,-,N/A,,Clear,0,2013-04-01 02:15:00
8:35 PM,59.0,37.4,45,30.04,10.0,Calm,Calm,-,N/A,,Clear,0,2013-04-01 02:35:00
8:55 PM,59.0,35.6,42,30.04,10.0,Calm,Calm,-,N/A,,Clear,0,2013-04-01 02:55:00
9:15 PM,57.2,35.6,44,30.04,10.0,Calm,Calm,-,N/A,,Clear,0,2013-04-01 03:15:00
9:35 PM,57.2,35.6,44,30.05,10.0,Calm,Calm,-,N/A,,Clear,0,2013-04-01 03:35:00
10:15 PM,55.4,35.6,47,30.05,10.0,Calm,Calm,-,N/A,,Clear,0,2013-04-01 04:15:00
10:35 PM,55.4,35.6,47,30.05,10.0,Calm,Calm,-,N/A,,Clear,0,2013-04-01 04:35:00
11:15 PM,55.4,37.4,51,30.05,10.0,Calm,Calm,-,N/A,,Clear,0,2013-04-01 05:15:00
11:35 PM,55.4,37.4,51,30.05,10.0,SE,6.9,-,N/A,,Clear,130,2013-04-01 05:35:00
11:55 PM,55.4,39.2,54,30.05,10.0,ESE,8.1,-,N/A,,Clear,120,2013-04-01 05:55:00